Naples, FL

1:13 PM EDT on March 29, 2017 (GMT -0400)
Naples Municipal

Weather History for KAPF - June, 2013

Change the Weather History Date:

Tuesday, June 18, 2013

  Actual Average Record
Temperature  
Mean Temperature 84 °F 82 °F  
Max Temperature 91 °F 90 °F 96 °F (1998)
Min Temperature 76 °F 74 °F 68 °F (1966)
Degree Days  
Heating Degree Days 0 0  
Month to date heating degree days 0 0  
Since 1 June heating degree days 0 0  
Since 1 July heating degree days 182 260  
Cooling Degree Days 19 17  
Month to date cooling degree days 290 296  
Year to date cooling degree days 1394 1324  
Since 1 June cooling degree days 290 296  
Growing Degree Days 34 (Base 50)    
Moisture  
Dew Point 75 °F    
Average Humidity 77    
Maximum Humidity 94    
Minimum Humidity 59    
Precipitation  
Precipitation 0.00 in 0.34 in 3.67 in (1972)
Month to date precipitation 3.51 4.65  
Year to date precipitation 13.85 16.50  
Snow  
Snow 0.00 in - - ()
Month to date snowfall 0.0  
Since 1 June snowfall 0.0  
Since 1 July snowfall 0.0  
Snow Depth 0.00 in    
Sea Level Pressure  
Sea Level Pressure 30.02 in    
Wind  
Wind Speed 7 mph (SE)    
Max Wind Speed 15 mph    
Max Gust Speed 18 mph    
Visibility 9 miles    
Events Rain , Thunderstorm    
T = Trace of Precipitation, MM = Missing Value Source: NWS Daily Summary

Daily Weather History Graph

Daily Weather History Graph

Search for Another Location

Airport or City:

Trip Planner

Search our weather history database for the weather conditions in past years. The results will help you decide how hot, cold, wet, or windy it might be!

Date:

Astronomy

Jun. 18, 2013 Rise Set
Actual Time 6:35 AM EDT 8:21 PM EDT
Civil Twilight 6:08 AM EDT 8:47 PM EDT
Nautical Twilight 5:37 AM EDT 9:19 PM EDT
Astronomical Twilight 5:04 AM EDT 9:52 PM EDT
Moon 3:25 PM EDT (6/18) 2:18 AM EDT (6/18)
Length of Visible Light 14h 38m
Length of Day
13h 46m
Waxing Gibbous, 70% of the Moon is Illuminated
Jun 18
Waxing Gibbous
Jun 23
Full
Jun 30
Last Quarter
Jul 8
New
Jul 15
First Quarter

Hourly Weather History & Observations

Time (EDT) Temp. Heat Index Dew Point Humidity Pressure Visibility Wind Dir Wind Speed Gust Speed Precip Events Conditions
12:53 AM 77.0 °F - 75.0 °F 94% 30.06 in 9.0 mi Calm Calm - N/A   Clear
1:53 AM 77.0 °F - 75.0 °F 94% 30.05 in 9.0 mi ENE 4.6 mph - N/A   Clear
2:53 AM 77.0 °F - 75.0 °F 94% 30.04 in 9.0 mi East 4.6 mph - N/A   Clear
3:53 AM 77.0 °F - 75.0 °F 94% 30.02 in 8.0 mi ESE 5.8 mph - N/A   Clear
4:53 AM 77.0 °F - 75.0 °F 94% 30.02 in 8.0 mi East 4.6 mph - N/A   Clear
5:53 AM 77.0 °F - 75.0 °F 94% 30.01 in 8.0 mi ESE 4.6 mph - N/A   Clear
6:53 AM 77.0 °F - 75.0 °F 94% 30.02 in 7.0 mi East 4.6 mph - N/A   Clear
7:53 AM 79.0 °F - 75.9 °F 90% 30.04 in 7.0 mi Calm Calm - N/A   Clear
8:53 AM 82.9 °F 91.8 °F 77.0 °F 82% 30.06 in 9.0 mi East 5.8 mph - N/A   Clear
9:53 AM 84.9 °F 94.1 °F 75.9 °F 74% 30.05 in 10.0 mi ESE 6.9 mph - N/A   Partly Cloudy
10:53 AM 87.1 °F 97.3 °F 75.9 °F 69% 30.06 in 10.0 mi ESE 5.8 mph - N/A   Partly Cloudy
11:53 AM 88.0 °F 96.5 °F 73.9 °F 63% 30.05 in 10.0 mi SSW 11.5 mph - N/A   Mostly Cloudy
12:53 PM 90.0 °F 100.2 °F 75.0 °F 61% 30.05 in 10.0 mi South 10.4 mph 18.4 mph N/A   Mostly Cloudy
1:53 PM 90.0 °F 101.3 °F 75.9 °F 63% 30.03 in 10.0 mi SW 12.7 mph - N/A   Clear
2:53 PM 90.0 °F 99.0 °F 73.9 °F 59% 30.01 in 10.0 mi SSW 12.7 mph - N/A   Scattered Clouds
3:53 PM 90.0 °F 101.3 °F 75.9 °F 63% 30.00 in 10.0 mi SW 15.0 mph - N/A   Clear
4:53 PM 89.1 °F 101.4 °F 77.0 °F 67% 30.00 in 10.0 mi SW 11.5 mph 18.4 mph N/A   Partly Cloudy
5:02 PM 89.6 °F 99.8 °F 75.2 °F 62% 29.99 in 10.0 mi WSW 12.7 mph - N/A Thunderstorm Clear
5:06 PM 87.8 °F 97.6 °F 75.2 °F 66% 29.99 in 10.0 mi SW 13.8 mph - N/A Thunderstorm Clear
5:53 PM 89.1 °F 101.4 °F 77.0 °F 67% 29.99 in 9.0 mi SW 12.7 mph - N/A Thunderstorm Thunderstorm
6:18 PM 86.0 °F 93.4 °F 73.4 °F 66% 29.99 in 10.0 mi ENE 10.4 mph - N/A   Mostly Cloudy
6:21 PM 84.2 °F 89.6 °F 71.6 °F 66% 29.99 in 10.0 mi NE 6.9 mph - N/A Thunderstorm Thunderstorm
6:53 PM 81.0 °F 84.9 °F 71.1 °F 72% 29.99 in 10.0 mi East 8.1 mph - N/A Thunderstorm Thunderstorm
7:00 PM 80.6 °F 84.6 °F 71.6 °F 74% 29.99 in 9.0 mi East 4.6 mph - 0.00 in   Overcast
7:26 PM 82.4 °F 88.2 °F 73.4 °F 74% 29.99 in 10.0 mi SSW 3.5 mph - 0.00 in   Scattered Clouds
7:53 PM 84.0 °F 90.2 °F 73.0 °F 69% 30.00 in 10.0 mi Calm Calm - 0.00 in   Partly Cloudy
8:02 PM 84.2 °F 92.3 °F 75.2 °F 74% 30.01 in 10.0 mi SE 8.1 mph - N/A Thunderstorm Thunderstorm
8:23 PM 80.6 °F 85.4 °F 73.4 °F 79% 30.01 in 7.0 mi Variable 5.8 mph - 0.01 in Rain Light Rain
8:53 PM 79.0 °F - 73.0 °F 82% 30.00 in 10.0 mi SSE 10.4 mph - 0.02 in   Scattered Clouds
9:06 PM 78.8 °F - 73.4 °F 83% 30.01 in 10.0 mi SE 4.6 mph - N/A Thunderstorm Partly Cloudy
9:21 PM 78.8 °F - 73.4 °F 83% 30.01 in 10.0 mi Calm Calm - N/A   Clear
9:53 PM 80.1 °F 85.4 °F 75.9 °F 87% 30.03 in 10.0 mi Calm Calm - N/A   Scattered Clouds
10:35 PM 80.6 °F 87.1 °F 77.0 °F 89% 30.03 in 10.0 mi SSE 5.8 mph - N/A Thunderstorm Mostly Cloudy
10:49 PM 78.8 °F - 73.4 °F 83% 30.03 in 1.8 mi East 16.1 mph 32.2 mph 0.17 in Rain , Thunderstorm Heavy Thunderstorms and Rain
10:53 PM 77.0 °F - 75.0 °F 94% 30.03 in 1.5 mi East 11.5 mph - 0.24 in Rain , Thunderstorm Heavy Thunderstorms and Rain
11:00 PM 77.0 °F - 73.4 °F 89% 30.02 in 3.0 mi ESE 9.2 mph - 0.05 in Rain , Thunderstorm Heavy Thunderstorms and Rain
11:22 PM 78.8 °F - 75.2 °F 89% 30.02 in 10.0 mi Calm Calm - 0.06 in Thunderstorm Thunderstorm
11:30 PM 77.0 °F - 73.4 °F 89% 30.03 in 10.0 mi ESE 5.8 mph - 0.06 in   Mostly Cloudy
11:38 PM 77.0 °F - 73.4 °F 89% 30.03 in 10.0 mi ESE 3.5 mph - 0.06 in Thunderstorm Mostly Cloudy
11:45 PM 78.8 °F - 73.4 °F 83% 30.03 in 10.0 mi Calm Calm - 0.06 in Thunderstorm Mostly Cloudy
11:53 PM 78.1 °F - 73.9 °F 87% 30.03 in 10.0 mi Calm Calm - 0.06 in   Mostly Cloudy